Weather Service Report


570 
ASUS44 KBMX 301210
RWRAL 
             
ALABAMA REGIONAL WEATHER ROUNDUP
NATIONAL WEATHER SERVICE BIRMINGHAM AL
700 AM CDT TUE MAY 30 2017

NOTE: "FAIR" INDICATES FEW OR NO CLOUDS BELOW 12,000 FEET
WITH NO SIGNIFICANT WEATHER AND/OR OBSTRUCTIONS TO VISIBILITY.

THE REMARK "TC" DENOTES TEMPERATURE IN DEGREES CELSIUS.

ALZ001>011-014-016>018-020-301300-
NORTH ALABAMA
  
CITY           SKY/WX    TMP DP  RH WIND       PRES   REMARKS
MUSCLE SHOALS  FOG       65  63  93 CALM      30.12R VSB 1/4          
6HR MIN TEMP:  61; 6HR MAX TEMP:  66;                                

HUNTSVILLE     CLOUDY    68  68 100 CALM      30.12R                  
6HR MIN TEMP:  67; 6HR MAX TEMP:  69;                                

DECATUR        SUNNY     65  65 100 CALM      30.12R                  
6HR MIN TEMP:  62; 6HR MAX TEMP:  67;                                

HALEYVILLE     FAIR      65  65 100 CALM      30.14R                  
6HR MIN TEMP:  62; 6HR MAX TEMP:  67;                                

GADSDEN        CLOUDY    67  67 100 CALM      30.12R                  
6HR MIN TEMP:  66; 6HR MAX TEMP:  68;                                

$$
 
ALZ012-013-022-023-030>036-040>044-301300-
WEST CENTRAL ALABAMA
  
CITY           SKY/WX    TMP DP  RH WIND       PRES   REMARKS
TUSCALOOSA     CLOUDY    71  70  96 CALM      30.11R                  
6HR MIN TEMP:  69; 6HR MAX TEMP:  71;                                

$$
 
ALZ015-024>027-033>036-040>044-301300-
CENTRAL ALABAMA
  
CITY           SKY/WX    TMP DP  RH WIND       PRES   REMARKS
BIRMINGHAM     CLOUDY    71  69  93 CALM      30.14R                  
6HR MIN TEMP:  70; 6HR MAX TEMP:  73;                                

MONTGOMERY     CLOUDY    72  64  76 SW7       30.14R                  
6HR MIN TEMP:  72; 6HR MAX TEMP:  75; 6HR PCP:  0.01;                

SHELBY CO ARPT CLOUDY    70  70 100 S3        30.13R                  
6HR MIN TEMP:  70; 6HR MAX TEMP:  71;                                

MAXWELL AFB    CLOUDY    71  69  92 SW7       30.13R                  
6HR MIN TEMP:  71; 6HR MAX TEMP:  74; 6HR PCP: TRACE;                

GREENVILLE     LGT RAIN  68  64  87 N7        30.13S                  
6HR MIN TEMP:  68; 6HR MAX TEMP:  74;                                

$$
 
ALZ019-021-028-029-037-038-045>048-301300-
EAST CENTRAL ALABAMA
  
CITY           SKY/WX    TMP DP  RH WIND       PRES   REMARKS
ANNISTON       CLOUDY    67  67 100 SW3       30.13R                  
6HR MIN TEMP:  66; 6HR MAX TEMP:  69;                                

ALEXANDER CITY DRIZZLE   70  68  95 CALM      30.14R                  
6HR MIN TEMP:  68; 6HR MAX TEMP:  70; 6HR PCP:  0.02;                

AUBURN         LGT RAIN  71  70  96 SW5       30.16R                  
6HR MIN TEMP:  70; 6HR MAX TEMP:  72; 6HR PCP: TRACE;                

$$
 
ALZ051>064-301300-
SOUTHWEST ALABAMA
  
CITY           SKY/WX    TMP DP  RH WIND       PRES   REMARKS
MOBILE         CLOUDY    70  66  87 N5        30.15R                  
6HR MIN TEMP:  69; 6HR MAX TEMP:  73; 6HR PCP: TRACE;                

BROOKLEY FIELD PTSUNNY   72  69  90 N8        30.15R                  
6HR MIN TEMP:  72; 6HR MAX TEMP:  75; 6HR PCP:  0.01;                

EVERGREEN      PTSUNNY   68  65  90 N3        30.14R                  
6HR MIN TEMP:  67; 6HR MAX TEMP:  76; 6HR PCP:  0.04;                

$$

ALZ049-050-065>069-301300-
SOUTHEAST ALABAMA
  
CITY           SKY/WX    TMP DP  RH WIND       PRES   REMARKS
DOTHAN         CLOUDY    75  69  81 NW10      30.17R                  
6HR MIN TEMP:  74; 6HR MAX TEMP:  76;                                

OZARK          CLOUDY    74  68  81 NW7       30.14R                  
6HR MIN TEMP:  73; 6HR MAX TEMP:  75;                                

TROY           CLOUDY    69  64  84 NW12      30.12F                  
6HR MIN TEMP:  69; 6HR MAX TEMP:  73; 6HR PCP:  0.02;                

EUFAULA        FAIR      75  70  84 CALM      30.11R                  
6HR MIN TEMP:  71; 6HR MAX TEMP:  75;                                

$$
  

Return to Home page


Western Regional Climate Center, wrcc@dri.edu